Lapse_Rate
5.8 5.6 5.5 5.6 5.6 5.7 5.7 5.6 5.7 5.6 5.6 5.6 5.6 5.6 5.6 5.7 5.8 5.8 5.8 5.9 6.0 5.9 5.9 5.9 6.0 6.0 5.9 5.7 5.7 5.8 5.8 5.8 5.9 5.8 5.8 5.6 5.6 5.5 5.6 5.6 5.6 5.7 5.7
5.7 5.6 5.5 5.6 5.7 5.7 5.8 5.8 5.8 5.7 5.6 5.6 5.6 5.6 5.6 5.6 5.6 5.6 5.7 5.7 5.7 5.8 5.8 5.8 5.8 5.8 5.9 5.9 5.8 5.8 5.7 5.7 5.8 5.9 5.8 5.7 5.6 5.6 5.6 5.7 5.7 5.7 5.7
5.7 5.7 5.7 5.6 5.7 5.8 5.8 5.8 5.8 5.7 5.7 5.7 5.6 5.5 5.5 5.5 5.6 5.6 5.6 5.7 5.7 5.6 5.6 5.6 5.6 5.6 5.6 5.7 5.7 5.8 5.7 5.7 5.6 5.7 5.8 5.8 5.7 5.7 5.7 5.6 5.6 5.6 5.6
6.0 5.9 5.8 5.7 5.8 6.0 6.1 6.0 6.0 6.0 5.9 5.9 5.9 5.8 5.8 5.7 5.7 5.6 5.6 5.6 5.6 5.6 5.5 5.5 5.4 5.4 5.4 5.4 5.5 5.6 5.7 5.7 5.7 5.7 5.7 5.7 5.8 5.8 5.7 5.6 5.5 5.5 5.4
6.3 6.2 6.2 6.1 6.2 6.2 6.3 6.2 6.3 6.2 6.1 6.1 6.1 6.0 6.0 6.0 6.0 5.9 5.8 5.8 5.7 5.4 5.2 5.3 5.3 5.3 5.3 5.2 5.2 5.3 5.5 5.6 5.5 5.6 5.6 5.6 5.8 5.8 5.8 5.6 5.1 5.3 5.4
6.5 6.5 6.4 6.3 6.4 6.5 6.5 6.4 6.4 6.3 6.3 6.2 6.1 6.1 6.1 6.1 6.0 5.9 5.9 5.8 5.7 5.6 5.5 5.4 5.4 5.3 5.3 5.3 5.3 5.2 5.2 5.4 5.4 5.4 5.4 5.4 5.5 5.6 5.7 5.7 5.3 5.3 5.5
6.9 6.7 6.6 6.6 6.6 6.6 6.5 6.5 6.4 6.3 6.2 6.2 6.1 6.1 6.0 6.0 5.9 5.9 5.9 5.9 5.9 5.9 5.9 5.8 5.8 5.8 5.6 5.6 5.4 5.2 5.3 5.3 5.3 5.4 5.4 5.3 5.2 5.3 5.4 5.5 5.5 5.3 5.5
7.1 6.9 6.7 6.6 6.6 6.6 6.5 6.4 6.3 6.2 6.2 6.2 6.0 6.0 6.1 6.0 6.0 6.1 6.1 6.1 6.1 6.2 6.2 6.1 6.2 6.2 6.1 6.1 6.1 5.6 5.6 5.5 5.4 5.5 5.5 5.4 5.3 5.3 5.4 5.4 5.4 5.4 5.4
7.1 6.9 6.8 6.7 6.6 6.5 6.5 6.4 6.4 6.4 6.3 6.2 6.1 6.1 6.0 6.2 6.1 6.2 6.2 6.3 6.3 6.3 6.3 6.3 6.3 6.3 6.3 6.3 6.2 6.2 6.3 6.2 5.8 5.6 5.5 5.5 5.6 5.6 5.5 5.4 5.4 5.4 5.3
7.1 6.9 6.8 6.7 6.6 6.5 6.4 6.4 6.5 6.3 6.3 6.2 6.2 6.2 6.1 6.3 6.3 6.3 6.4 6.4 6.4 6.4 6.4 6.4 6.4 6.3 6.2 6.2 6.2 6.2 6.2 6.2 6.1 6.1 6.0 5.7 5.5 5.6 5.6 5.6 5.6 5.6 5.7
7.0 6.9 6.8 6.7 6.5 6.5 6.4 6.4 6.4 6.4 6.4 6.3 6.2 6.3 6.3 6.4 6.5 6.6 6.7 6.7 6.7 6.7 6.6 6.5 6.4 6.4 6.3 6.2 6.2 6.1 6.1 6.1 6.1 6.1 6.1 6.0 5.8 5.8 5.7 5.8 5.8 5.8 5.7
7.0 6.9 6.7 6.6 6.5 6.5 6.6 6.5 6.4 6.4 6.4 6.3 6.4 6.4 6.5 6.6 6.6 6.7 6.7 6.7 6.7 6.6 6.6 6.5 6.4 6.4 6.3 6.3 6.2 6.2 6.2 6.2 6.1 6.1 6.0 5.9 5.7 5.8 5.7 5.7 5.7 5.7 5.7
7.0 6.8 6.7 6.6 6.5 6.5 6.5 6.5 6.5 6.5 6.5 6.4 6.5 6.5 6.6 6.7 6.7 6.7 6.7 6.7 6.7 6.6 6.6 6.6 6.5 6.4 6.4 6.4 6.4 6.3 6.3 6.3 6.2 6.3 6.3 6.2 6.0 5.8 5.7 5.4 5.8 5.8 5.8
6.9 6.7 6.6 6.6 6.5 6.5 6.5 6.5 6.4 6.5 6.4 6.5 6.5 6.5 6.6 6.6 6.6 6.8 6.8 6.7 6.6 6.6 6.5 6.6 6.6 6.7 6.7 6.6 6.5 6.4 6.4 6.5 6.5 6.5 6.4 6.4 6.3 6.1 5.9 5.9 5.9 5.8 5.8
6.8 6.6 6.6 6.5 6.5 6.5 6.5 6.4 6.4 6.4 6.4 6.5 6.3 6.4 6.5 6.6 6.7 6.7 6.7 6.7 6.7 6.7 6.7 6.7 6.6 6.7 6.6 6.7 6.8 6.9 6.7 6.7 6.8 6.9 6.8 6.6 6.4 6.3 6.1 5.9 5.9 6.0 5.9
6.7 6.6 6.5 6.5 6.4 6.4 6.3 6.4 6.4 6.4 6.4 6.3 6.4 6.5 6.6 6.6 6.7 6.8 6.6 6.5 6.5 6.5 6.6 6.8 6.9 7.0 7.0 6.9 6.9 6.9 7.1 7.0 6.9 6.8 6.7 6.6 6.5 6.3 6.1 5.9 5.7 5.7 5.7
6.6 6.5 6.5 6.4 6.4 6.3 6.4 6.5 6.4 6.4 6.3 6.4 6.4 6.5 6.7 6.7 6.6 6.5 6.5 6.5 6.5 6.7 6.7 6.8 7.0 7.0 7.0 7.0 7.1 7.2 7.0 6.9 6.9 6.8 6.6 6.4 6.1 6.0 5.9 5.8 5.7 5.6 5.6
6.4 6.5 6.4 6.4 6.3 6.3 6.4 6.4 6.3 6.2 6.3 6.4 6.6 6.7 6.6 6.5 6.4 6.4 6.5 6.6 6.6 6.7 6.8 6.9 6.9 6.8 6.8 6.8 6.9 6.9 6.8 6.7 6.6 6.5 6.4 6.1 6.0 5.9 5.8 5.7 5.7 5.7 5.7
6.5 6.5 6.4 6.4 6.3 6.4 6.4 6.3 6.2 6.2 6.4 6.5 6.4 6.3 6.1 6.1 6.2 6.4 6.4 6.5 6.7 7.0 7.2 7.1 7.1 6.8 6.7 6.5 6.5 6.5 6.6 6.6 6.5 6.3 6.2 6.0 5.8 5.7 5.6 5.7 5.7 5.7 5.7
6.5 6.4 6.4 6.3 6.4 6.5 6.3 6.2 6.2 6.3 6.4 6.3 6.2 6.2 6.1 6.2 6.5 6.6 6.6 6.8 7.1 7.2 7.1 6.9 6.8 6.7 6.6 6.5 6.3 6.1 6.1 6.1 6.1 6.0 5.8 5.8 5.7 5.8 5.8 5.7 5.7 5.7 5.7
6.5 6.4 6.4 6.4 6.4 6.3 6.3 6.2 6.2 6.3 6.2 6.1 6.1 6.2 6.1 6.3 6.8 6.7 6.7 6.7 6.9 6.9 6.8 6.6 6.5 6.5 6.5 6.5 6.2 6.2 6.0 5.9 5.9 5.9 5.8 5.6 5.6 5.7 5.7 5.5 5.5 5.5 5.5
6.5 6.4 6.3 6.4 6.3 6.2 6.2 6.1 6.2 6.2 6.2 6.1 6.1 6.2 6.1 6.3 6.4 6.4 6.3 6.4 6.3 6.3 6.5 6.5 6.6 6.5 6.4 6.3 6.1 5.9 5.8 5.9 5.7 5.7 5.6 5.6 5.6 5.7 5.7 5.6 5.5 5.4 5.2
6.4 6.2 6.3 6.3 6.1 6.1 6.0 6.1 6.2 6.0 6.0 6.0 6.1 6.0 6.2 6.2 6.1 6.0 5.9 5.8 5.9 6.0 6.0 6.1 6.1 6.1 6.0 6.0 5.9 5.9 5.8 5.7 5.5 5.6 5.5 5.3 5.2 5.4 5.6 5.6 5.5 5.4 5.2
6.3 6.3 6.2 6.0 5.9 5.9 6.0 6.2 5.9 6.0 6.1 6.0 5.9 5.7 5.8 5.7 5.7 5.6 5.5 5.5 5.6 5.6 5.7 5.7 5.8 5.7 5.7 5.6 5.5 5.6 5.6 5.5 5.5 5.5 5.1 4.9 5.0 5.2 5.4 5.6 5.5 5.2 5.2
6.3 6.1 5.9 5.7 5.8 5.9 6.1 5.8 5.8 6.0 6.1 5.9 5.7 5.5 5.4 5.3 5.3 5.3 5.3 5.4 5.3 5.3 5.4 5.4 5.4 5.5 5.5 5.5 5.4 5.2 5.1 5.2 5.3 5.5 6.0 5.4 5.0 4.8 5.1 5.4 5.6 5.5 5.4
6.3 6.0 5.7 5.8 5.9 5.9 5.6 5.6 5.9 6.0 5.9 5.6 5.5 5.3 5.2 5.1 5.1 5.2 5.2 5.2 5.0 5.1 5.2 5.2 5.1 5.1 5.1 5.0 4.9 4.8 4.7 4.6 4.6 4.7 4.9 5.3 5.3 4.8 4.6 4.7 4.9 5.2 5.2
Wind_Speed
4 6 10 9 9 9 9 10 10 10 9 9 8 7 7 7 6 6 5 5 4 4 5 5 6 6 6 6 7 7 7 8 8 7 6 6 6 8 6 5 4 4 5
8 7 10 11 10 10 10 9 9 8 8 7 7 6 5 5 5 5 4 4 4 4 4 5 3 4 4 4 5 5 5 4 5 5 4 4 5 4 3 3 2 3 4
7 7 8 9 11 9 9 8 8 7 6 6 5 5 4 4 4 4 4 3 3 3 5 8 3 3 2 2 3 3 2 2 2 1 1 1 2 3 3 2 3 2 1
9 9 8 10 11 10 10 9 9 8 8 7 6 6 4 4 4 3 2 2 3 4 5 6 3 1 1 2 2 3 3 2 2 2 3 4 5 5 6 5 4 5 3
12 13 14 15 15 13 13 12 12 12 11 10 10 10 11 12 12 12 11 9 6 5 6 7 8 6 6 5 5 4 4 3 3 4 4 5 6 8 9 10 10 7 6
12 14 16 16 16 15 14 14 13 13 12 12 12 11 12 12 13 13 13 12 11 10 8 9 9 9 8 8 8 8 7 6 5 5 5 6 8 9 11 13 10 10 9
11 14 15 15 15 15 14 14 13 13 14 14 14 13 13 12 12 13 13 13 13 13 12 11 11 9 11 10 9 10 11 8 8 7 7 7 8 10 11 11 11 13 11
10 11 11 14 15 15 14 14 13 12 12 13 13 13 13 12 12 12 12 12 12 12 12 12 11 10 11 10 11 11 11 10 9 9 9 8 9 11 12 13 13 12 14
10 11 10 10 11 13 14 13 12 12 12 12 12 12 12 12 12 12 12 13 13 13 13 13 12 12 12 11 11 11 11 12 12 10 10 10 9 12 14 14 15 14 12
9 10 9 9 10 10 11 13 13 13 13 13 13 13 12 13 13 14 13 14 14 13 13 12 12 12 12 12 12 10 9 11 12 11 11 12 13 15 15 15 16 16 14
6 7 8 9 9 9 10 10 11 12 12 12 11 12 10 11 11 12 13 15 14 15 14 13 12 12 12 11 12 12 10 6 8 10 10 11 14 18 18 17 18 17 17
4 5 6 8 8 9 8 9 10 9 10 10 10 11 10 11 12 11 12 14 14 16 14 14 14 12 11 9 10 11 7 8 7 8 9 10 13 16 16 15 16 18 18
3 3 4 6 7 8 8 7 7 7 8 9 12 10 9 9 9 10 9 10 10 12 11 12 12 10 9 8 8 8 9 7 5 6 8 10 11 13 14 13 15 15 15
4 3 4 5 6 8 6 6 6 7 7 8 8 10 9 9 9 9 9 10 10 10 11 10 9 10 10 8 7 8 7 7 6 6 8 9 10 10 10 10 11 10 12
4 3 3 4 5 5 6 5 6 7 7 7 7 9 10 9 8 9 9 10 10 11 11 10 10 9 10 10 10 9 8 8 8 6 6 8 8 9 9 9 9 10 10
4 4 3 3 4 4 5 6 5 5 5 5 6 8 9 9 9 9 8 9 10 10 11 9 9 8 7 8 8 10 8 7 7 6 5 6 9 10 9 9 8 8 9
4 4 4 4 4 4 5 4 4 3 4 5 5 7 9 9 9 8 8 9 11 11 11 10 10 10 6 7 9 8 8 8 7 6 5 5 6 17 17 15 14 13 11
5 5 4 4 4 4 4 3 2 2 2 3 5 6 8 9 8 8 7 7 10 9 10 8 7 7 7 7 8 7 7 7 5 5 9 9 11 10 16 19 19 18 16
6 6 5 4 3 3 3 2 1 1 2 3 4 5 6 7 7 6 6 7 8 8 8 7 7 7 6 8 8 6 6 5 7 10 11 12 14 12 10 13 16 20 19
6 5 4 3 3 3 2 1 1 0 2 2 3 3 3 4 5 6 6 6 7 6 6 7 8 8 7 8 6 5 5 6 6 7 7 10 12 12 12 10 9 10 14
5 6 5 5 3 2 0 0 0 1 1 1 1 2 2 3 4 5 5 6 7 5 6 7 6 9 7 9 5 4 2 5 8 6 9 8 9 12 15 14 14 12 11
7 6 6 5 3 3 2 1 1 0 1 2 2 1 0 1 1 2 4 4 6 4 6 7 8 5 5 8 5 2 2 1 4 6 6 6 8 9 11 15 16 16 14
8 8 7 5 4 4 3 1 0 1 1 2 1 2 2 1 1 1 2 3 3 3 3 4 5 6 4 4 7 3 3 3 7 1 6 5 7 5 6 9 12 13 14
9 6 5 5 5 3 4 3 3 2 2 2 2 2 4 3 3 2 1 2 3 3 3 3 3 4 4 4 4 4 2 4 2 4 1 4 5 5 5 5 7 10 10
7 7 5 5 4 4 5 4 3 4 3 3 3 5 5 5 5 4 2 2 3 3 3 3 4 3 3 3 3 3 4 4 4 4 7 4 4 3 3 4 7 9 11
4 5 5 5 4 5 5 5 6 6 6 5 5 5 5 4 3 5 5 4 3 3 2 2 3 3 3 3 3 2 3 2 4 3 4 7 7 3 1 3 4 8 9
Wind_Direction
156 162 154 139 119 105 97 93 90 85 80 79 74 69 67 69 66 64 61 53 51 46 40 42 44 52 57 59 57 56 56 56 60 61 60 56 46 47 73 66 57 48 43
135 151 151 137 123 109 102 95 88 83 76 71 67 66 60 55 53 51 55 52 42 34 12 336 64 56 53 56 45 47 53 61 68 66 62 52 35 33 40 41 35 35 20
123 142 135 132 120 107 97 92 87 80 72 66 60 54 45 31 28 30 29 30 15 6 3 36 76 52 45 29 9 10 24 39 44 25 15 321 324 332 331 315 298 286 327
111 113 114 111 99 93 88 83 74 70 62 51 39 28 17 2 351 338 340 351 347 335 330 322 314 277 276 289 305 320 322 320 318 310 283 277 276 285 292 279 275 265 252
87 90 89 85 84 81 77 73 66 61 55 48 44 37 37 36 37 33 27 15 349 319 307 304 310 310 279 277 281 283 279 272 268 275 283 280 282 285 289 283 255 250 242
74 85 87 83 81 75 71 65 64 59 52 48 43 40 39 38 37 35 31 24 12 357 335 303 291 291 285 281 270 273 269 258 252 264 266 270 271 280 288 302 267 227 237
79 72 83 82 78 74 69 64 64 59 56 52 48 48 47 42 39 35 31 27 21 18 9 354 329 300 286 282 279 272 269 265 267 266 266 264 267 275 280 289 282 230 231
87 78 77 73 71 70 65 63 62 59 56 51 47 44 43 38 33 27 21 16 10 6 6 5 1 350 332 310 286 279 276 263 261 264 266 267 266 273 277 277 286 271 234
79 78 69 68 66 64 63 58 56 54 51 47 41 39 37 31 29 21 15 8 1 356 354 356 355 355 355 337 319 296 276 266 264 259 261 266 261 268 274 272 272 276 272
71 70 68 64 63 61 57 52 52 48 44 43 41 38 36 34 29 24 20 13 9 3 353 348 346 347 347 345 343 334 310 276 260 260 260 260 260 265 268 272 272 270 266
64 57 56 57 55 57 55 46 48 46 46 43 37 38 36 35 29 26 22 16 15 10 4 357 349 345 343 337 339 336 322 279 267 259 261 262 267 275 279 275 270 266 263
76 55 56 56 54 57 58 50 50 50 48 46 43 39 38 38 35 32 28 23 22 14 12 5 359 354 350 336 331 338 333 316 292 280 276 285 284 285 283 281 278 266 262
110 81 63 68 64 60 55 52 53 50 46 47 44 37 36 37 31 29 24 18 15 11 12 9 7 4 352 342 329 324 326 324 300 289 284 293 297 301 303 304 291 281 266
129 106 75 70 70 61 64 55 48 51 56 51 42 30 27 28 25 25 21 13 13 9 5 7 360 354 353 348 338 318 308 315 315 295 284 291 299 304 313 314 316 326 300
137 125 97 80 74 65 67 58 55 62 59 47 37 32 30 30 26 19 16 13 12 6 4 359 355 353 348 350 351 342 327 314 307 307 300 316 331 339 340 337 334 336 331
149 145 125 98 98 87 79 70 65 57 58 44 35 33 37 34 26 21 14 13 11 7 3 356 351 343 341 343 346 343 337 329 323 323 340 341 3 8 4 1 358 348 343
173 148 150 134 119 89 79 80 67 56 57 46 40 42 41 36 29 21 18 16 10 4 1 357 358 352 346 350 341 338 330 329 329 344 1 7 43 52 49 39 33 30 23
163 162 164 151 127 110 100 89 79 74 81 62 49 48 42 36 28 22 21 18 8 9 4 358 0 355 359 352 342 339 327 322 353 39 69 70 69 68 52 54 49 46 40
175 163 170 152 130 130 113 114 113 105 78 63 53 46 39 38 33 29 23 19 18 17 15 5 1 3 355 351 346 348 360 30 71 73 67 65 65 60 63 49 50 43 40
177 178 169 160 158 128 131 184 186 93 48 47 44 48 40 35 28 22 20 18 20 25 20 15 5 0 355 350 341 9 59 67 71 66 67 66 66 57 51 49 43 50 42
188 184 178 183 180 156 189 287 53 23 352 299 343 17 40 34 26 17 15 19 16 24 15 9 2 0 3 1 351 2 19 66 55 55 57 52 55 55 48 37 33 25 24
191 193 195 198 180 185 183 166 168 255 280 295 303 329 76 122 27 14 16 17 17 18 22 14 12 355 351 6 358 320 338 231 42 54 58 55 48 46 53 43 34 28 23
201 198 201 191 191 195 173 138 178 245 253 247 217 236 238 242 199 30 24 12 21 26 20 11 13 9 351 343 4 358 337 339 342 75 59 54 55 60 68 59 47 37 26
208 199 193 185 194 190 178 197 208 223 245 230 248 250 270 249 239 234 319 353 4 7 18 8 6 354 339 332 327 356 303 277 313 307 195 51 41 44 53 55 45 44 38
192 185 184 192 195 198 205 214 222 239 252 284 275 277 270 265 252 257 271 302 331 344 351 345 347 347 335 312 330 330 327 311 282 287 295 307 341 42 55 51 44 38 24
154 162 183 194 219 218 220 224 237 255 270 269 270 273 274 274 274 259 255 260 280 299 311 318 312 288 285 268 275 293 301 305 325 322 306 327 311 333 330 92 40 31 20